INMARSAT 5-F4 (42698 NORAD) Tracking and Keplerian Element Data

This shows tracking and keplerian element data for the satellite.

Feedback or suggestion? Click here.




ElementValue
Catalog42698
NameINMARSAT 5-F4
Epoch Orbit427
Epoch Day198.02420108
Epoch Year2018
RAAN243.2915
Inclination0.0565
Eccentricity5E-05
Argument of Perigee141.502
Mean Anonmoly335.1909
Mean Motion1.00269084
Decay Rate5.6E-07
L11 42698U 17025A 18198.02420108 .00000056 00000-0 00000+0 0 9998
L22 42698 0.0565 243.2915 0000500 141.5020 335.1909 1.00269084 4274

Live tracking and technical data element details for INMARSAT 5-F4 (NORAD 42698). INMARSAT 5-F4 can be tracked NOW for your location showing map with azimuth and elevation plus other details from your city location.

Track the satellite on the map from your city or location and see movement details for azimuth, elevation, latitude, longitude, range, height, and movement on the map or in text.







IsCatalogInMostPopularTable: catalog: 42698, numindb: 91
Update: records affected: 1



GetName: 42698 INMARSAT 5-F4

Hit Count: updated at: Wed, 18 Jul 2018 20:27:55 GMT